Location: Huesca
(42.1318°N, 0.4078°W)
Time: 20:02:26
(UTC+02:00)

CUTE 1.7 + AOD 2 - Pass Details

Date: 21 May 2025
Orbit: 547 x 559 km, 97.8° (Epoch: 11 June)

Event Time Altitude Azimuth Distance (km) Brightness Sun altitude
Rises 05:18:15 0° 22° (NNE) 2,757 ? -12.4°
Reaches altitude 10° 05:20:35 10° 33° (NNE) 1,855 ? -12.1°
Maximum altitude 05:24:10 31° 97° (E) 994 ? -11.6°
Drops below altitude 10° 05:27:44 10° 160° (SSE) 1,836 ? -11.1°
Sets 05:30:02 0° 171° (S) 2,723 ? -10.8°
